Location: Clinton NY
(43.0598°N, 75.3602°W)
Time: 22:25:15
(UTC-04:00)

ISS - All Passes

Search period start: 01 August 2014 00:00
Search period end: 11 August 2014 00:00
Orbit: 411 x 419 km, 51.6° (Epoch: 01 August)

Date Brightness Start Highest point End Pass type
(mag) Time Alt. Az. Time Alt. Az. Time Alt. Az.
01 Aug - 01:19:00 10° WNW 01:21:37 20° N 01:24:13 10° NE visible
01 Aug - 02:56:30 10° NW 02:59:10 21° N 03:01:49 10° ENE visible
01 Aug - 04:33:01 10° NW 04:36:22 64° NNE 04:39:42 10° ESE visible
01 Aug - 06:10:26 10° W 06:12:46 18° SW 06:15:05 10° S daylight
01 Aug - 21:18:03 10° SSE 21:19:17 12° SE 21:20:31 10° ESE visible
01 Aug - 22:52:10 10° SW 22:55:30 89° SSE 22:58:52 10° ENE visible
02 Aug - 00:29:47 10° WNW 00:32:34 24° NNW 00:35:22 10° NE visible
02 Aug - 02:07:36 10° NW 02:10:06 19° N 02:12:37 10° NE visible
02 Aug - 03:44:13 10° NW 03:47:27 42° NNE 03:50:40 10° E visible
02 Aug - 05:21:06 10° WNW 05:24:05 29° SW 05:27:03 10° SSE visible
02 Aug - 22:03:27 10° SW 22:06:42 52° SE 22:09:58 10° ENE visible
02 Aug - 23:40:33 10° W 23:43:33 30° NNW 23:46:34 10° NE visible
03 Aug - 01:18:34 10° NW 01:21:01 18° N 01:23:28 10° NE visible
03 Aug - 02:55:27 10° NW 02:58:29 30° NNE 03:01:30 10° E visible
03 Aug - 04:32:03 10° WNW 04:35:20 51° SW 04:38:35 10° SE visible
03 Aug - 21:14:59 10° SSW 21:17:56 30° SE 21:20:54 10° ENE visible
03 Aug - 22:51:24 10° W 22:54:34 41° NNW 22:57:46 10° NE visible
04 Aug - 00:29:26 10° NW 00:31:55 19° N 00:34:25 10° NE visible
04 Aug - 02:06:38 10° NW 02:09:27 24° NNE 02:12:16 10° ENE visible
04 Aug - 03:43:08 10° WNW 03:46:30 87° SW 03:49:52 10° SE visible
04 Aug - 05:21:34 10° WSW 05:22:44 11° SW 05:23:54 10° SSW visible
04 Aug - 20:26:54 10° S 20:29:14 18° SE 20:31:34 10° E daylight
04 Aug - 22:02:20 10° WSW 22:05:38 62° NNW 22:08:58 10° NE visible
04 Aug - 23:40:12 10° WNW 23:42:50 21° N 23:45:29 10° NE visible
05 Aug - 01:17:46 10° NW 01:20:23 21° N 01:23:00 10° ENE visible
05 Aug - 02:54:17 10° NW 02:57:37 58° NNE 03:00:56 10° ESE night (unlit)
05 Aug - 04:31:34 10° W 04:34:04 20° SW 04:36:33 10° S visible
05 Aug - 19:40:04 10° SE 19:40:34 10° SE 19:41:05 10° ESE daylight
05 Aug - 21:13:26 10° SW 21:16:45 81° SSE 21:20:06 10° ENE visible
05 Aug - 22:50:57 10° WNW 22:53:46 25° NNW 22:56:36 10° NE visible
06 Aug - 00:28:49 10° NW 00:31:17 19° N 00:33:46 10° NE visible
06 Aug - 02:05:28 10° NW 02:08:39 39° NNE 02:11:50 10° E night (unlit)
06 Aug - 03:42:17 10° WNW 03:45:20 33° SW 03:48:23 10° SSE night (unlit)
06 Aug - 20:24:43 10° SW 20:27:55 46° SE 20:31:08 10° ENE daylight
06 Aug - 22:01:42 10° W 22:04:44 31° NNW 22:07:46 10° NE visible
06 Aug - 23:39:44 10° NW 23:42:10 18° N 23:44:37 10° NE visible
07 Aug - 01:16:40 10° NW 01:19:39 29° NNE 01:22:37 10° E visible
07 Aug - 02:53:14 10° WNW 02:56:32 57° SW 02:59:49 10° SE night (unlit)
07 Aug - 19:36:17 10° SSW 19:39:08 27° SE 19:42:00 10° ENE daylight
07 Aug - 21:12:31 10° W 21:15:43 44° NNW 21:18:57 10° NE visible
07 Aug - 22:50:32 10° NW 22:53:03 19° N 22:55:33 10° NE visible
08 Aug - 00:27:49 10° NW 00:30:35 23° NNE 00:33:21 10° ENE visible
08 Aug - 02:04:18 10° NW 02:07:40 84° NNE 02:11:01 10° ESE night (unlit)
08 Aug - 03:42:21 10° WSW 03:43:56 13° SW 03:45:31 10° SSW night (unlit)
08 Aug - 18:48:18 10° S 18:50:24 16° SE 18:52:32 10° E daylight
08 Aug - 20:23:28 10° WSW 20:26:46 68° NNW 20:30:06 10° NE daylight
08 Aug - 22:01:16 10° WNW 22:03:56 22° NNW 22:06:36 10° NE visible
08 Aug - 23:38:54 10° NW 23:41:28 20° N 23:44:03 10° ENE visible
09 Aug - 01:15:26 10° NW 01:18:44 53° NNE 01:22:01 10° ESE visible
09 Aug - 02:52:35 10° W 02:55:13 22° SW 02:57:52 10° S night (unlit)
09 Aug - 19:34:33 10° SW 19:37:51 73° SE 19:41:11 10° ENE daylight
09 Aug - 21:11:58 10° WNW 21:14:50 26° NNW 21:17:42 10° NE visible
09 Aug - 22:49:53 10° NW 22:52:20 19° N 22:54:47 10° NE visible
10 Aug - 00:26:35 10° NW 00:29:44 36° NNE 00:32:52 10° E visible
10 Aug - 02:03:19 10° WNW 02:06:27 37° SW 02:09:33 10° SSE night (unlit)
10 Aug - 18:45:52 10° SSW 18:49:00 41° SE 18:52:10 10° ENE daylight
10 Aug - 20:22:42 10° W 20:25:46 33° NNW 20:28:51 10° NE daylight
10 Aug - 22:00:45 10° NW 22:03:11 18° N 22:05:37 10° NE visible
10 Aug - 23:37:44 10° NW 23:40:40 27° NNE 23:43:36 10° E visible
